Saint Bonnet de Bellac- Haute Vienne - France
Donnes mto: mardi, 10/04/2012
Date Horaire Temp. E. Hum. E. P.atmo. Pluie Vent Direction Direction Ensoleilleme Solaire P. de rose Temp au vent Rafales
10/04/2012 00:00 9,8 C 75 % 1002,2 hPa 0,0 mm 12,6 km/h (3 Bft) S 180 0 min 0 W/m 5,6 C 8,0 C 14,4 km/h (3 Bft)
10/04/2012 00:10 9,7 C 76 % 1002,2 hPa 0,0 mm 7,2 km/h (2 Bft) SO 225 0 min 0 W/m 5,7 C 8,8 C 16,2 km/h (3 Bft)
10/04/2012 00:20 9,8 C 75 % 1002,2 hPa 0,0 mm 12,6 km/h (3 Bft) SO 225 0 min 0 W/m 5,6 C 8,0 C 19,1 km/h (3 Bft)
10/04/2012 00:30 9,8 C 75 % 1002,2 hPa 0,0 mm 11,2 km/h (2 Bft) SO 225 0 min 0 W/m 5,6 C 8,2 C 13,7 km/h (3 Bft)
10/04/2012 00:40 9,8 C 75 % 1002,3 hPa 0,0 mm 5,8 km/h (2 Bft) SO 225 0 min 0 W/m 5,6 C 9,3 C 9,4 km/h (2 Bft)
10/04/2012 00:50 9,8 C 75 % 1002,4 hPa 0,0 mm 5,4 km/h (2 Bft) SO 225 0 min 0 W/m 5,6 C 9,4 C 6,5 km/h (2 Bft)
10/04/2012 01:00 9,6 C 76 % 1002,5 hPa 0,0 mm 4,3 km/h (1 Bft) SO 225 0 min 0 W/m 5,6 C 9,6 C 4,3 km/h (1 Bft)
10/04/2012 01:10 9,6 C 77 % 1002,4 hPa 0,0 mm 6,1 km/h (2 Bft) S-SO 202 0 min 0 W/m 5,8 C 9,0 C 9,7 km/h (2 Bft)
10/04/2012 01:20 9,4 C 78 % 1002,4 hPa 0,0 mm 6,5 km/h (2 Bft) S 180 0 min 0 W/m 5,8 C 8,7 C 7,9 km/h (2 Bft)
10/04/2012 01:30 9,3 C 78 % 1002,3 hPa 0,0 mm 8,6 km/h (2 Bft) SO 225 0 min 0 W/m 5,7 C 8,1 C 15,1 km/h (3 Bft)
10/04/2012 01:40 9,2 C 79 % 1002,3 hPa 0,0 mm 5,8 km/h (2 Bft) SO 225 0 min 0 W/m 5,8 C 8,6 C 7,9 km/h (2 Bft)
10/04/2012 01:50 9,2 C 80 % 1002,1 hPa 0,0 mm 7,9 km/h (2 Bft) SO 225 0 min 0 W/m 5,9 C 8,1 C 10,1 km/h (2 Bft)
10/04/2012 02:00 9,4 C 80 % 1001,9 hPa 0,0 mm 8,6 km/h (2 Bft) S-SO 202 0 min 0 W/m 6,1 C 8,2 C 13,3 km/h (3 Bft)
10/04/2012 02:10 9,5 C 80 % 1001,8 hPa 0,0 mm 6,8 km/h (2 Bft) SO 225 0 min 0 W/m 6,2 C 8,7 C 11,5 km/h (2 Bft)
10/04/2012 02:20 9,6 C 80 % 1001,7 hPa 0,0 mm 9,7 km/h (2 Bft) S-SO 202 0 min 0 W/m 6,3 C 8,2 C 12,6 km/h (3 Bft)
10/04/2012 02:30 9,6 C 80 % 1001,6 hPa 0,0 mm 7,2 km/h (2 Bft) S-SO 202 0 min 0 W/m 6,3 C 8,7 C 11,9 km/h (2 Bft)
10/04/2012 02:40 9,5 C 80 % 1001,4 hPa 0,0 mm 8,3 km/h (2 Bft) S-SO 202 0 min 0 W/m 6,2 C 8,4 C 8,3 km/h (2 Bft)
10/04/2012 02:50 9,4 C 81 % 1001,3 hPa 0,0 mm 6,5 km/h (2 Bft) SO 225 0 min 0 W/m 6,3 C 8,7 C 8,6 km/h (2 Bft)
10/04/2012 03:02 9,2 C 80 % 1001,2 hPa 0,0 mm 10,8 km/h (2 Bft) SO 225 0 min 0 W/m 5,9 C 7,5 C 20,5 km/h (4 Bft)
10/04/2012 03:10 9,1 C 81 % 1001,1 hPa 0,0 mm 5,0 km/h (1 Bft) SO 225 0 min 0 W/m 6,0 C 8,7 C 6,8 km/h (2 Bft)
10/04/2012 03:20 9,1 C 82 % 1001,0 hPa 0,0 mm 6,5 km/h (2 Bft) S-SO 202 0 min 0 W/m 6,2 C 8,3 C 10,1 km/h (2 Bft)
10/04/2012 03:30 8,9 C 82 % 1000,8 hPa 0,0 mm 16,6 km/h (3 Bft) S-SO 202 0 min 0 W/m 6,0 C 6,4 C 19,1 km/h (3 Bft)
10/04/2012 03:40 8,8 C 83 % 1000,7 hPa 0,0 mm 7,9 km/h (2 Bft) S-SO 202 0 min 0 W/m 6,1 C 7,6 C 8,3 km/h (2 Bft)
10/04/2012 03:50 8,6 C 83 % 1000,5 hPa 0,0 mm 13,0 km/h (3 Bft) SO 225 0 min 0 W/m 5,9 C 6,5 C 16,9 km/h (3 Bft)
10/04/2012 04:00 8,4 C 84 % 1000,4 hPa 0,0 mm 7,9 km/h (2 Bft) S-SO 202 0 min 0 W/m 5,9 C 7,2 C 11,5 km/h (2 Bft)
10/04/2012 04:10 8,3 C 84 % 1000,4 hPa 0,0 mm 10,4 km/h (2 Bft) S-SO 202 0 min 0 W/m 5,8 C 6,5 C 11,2 km/h (2 Bft)
10/04/2012 04:20 8,3 C 85 % 1000,4 hPa 0,0 mm 8,6 km/h (2 Bft) S-SO 202 0 min 0 W/m 5,9 C 6,9 C 8,6 km/h (2 Bft)
10/04/2012 04:30 8,3 C 85 % 1000,4 hPa 0,0 mm 7,9 km/h (2 Bft) SO 225 0 min 0 W/m 5,9 C 7,0 C 14,8 km/h (3 Bft)
10/04/2012 04:40 8,3 C 85 % 1000,3 hPa 0,0 mm 12,6 km/h (3 Bft) S-SO 202 0 min 0 W/m 5,9 C 6,2 C 13,0 km/h (3 Bft)
10/04/2012 04:50 8,4 C 85 % 1000,2 hPa 0,0 mm 5,8 km/h (2 Bft) SO 225 0 min 0 W/m 6,0 C 7,7 C 5,8 km/h (2 Bft)
10/04/2012 05:00 8,4 C 84 % 1000,1 hPa 0,0 mm 4,7 km/h (1 Bft) S-SO 202 0 min 0 W/m 5,9 C 8,0 C 6,8 km/h (2 Bft)
10/04/2012 05:10 8,4 C 84 % 999,9 hPa 0,0 mm 6,1 km/h (2 Bft) SO 225 0 min 0 W/m 5,9 C 7,6 C 9,0 km/h (2 Bft)
10/04/2012 05:20 8,4 C 84 % 999,9 hPa 0,0 mm 7,2 km/h (2 Bft) S 180 0 min 0 W/m 5,9 C 7,3 C 12,2 km/h (2 Bft)
10/04/2012 05:30 8,4 C 84 % 999,9 hPa 0,0 mm 10,4 km/h (2 Bft) S-SO 202 0 min 0 W/m 5,9 C 6,6 C 14,0 km/h (3 Bft)
10/04/2012 05:40 8,4 C 84 % 999,8 hPa 0,0 mm 5,8 km/h (2 Bft) S-SO 202 0 min 0 W/m 5,9 C 7,7 C 9,0 km/h (2 Bft)
10/04/2012 05:50 8,5 C 84 % 999,8 hPa 0,0 mm 9,4 km/h (2 Bft) SO 225 0 min 0 W/m 6,0 C 7,0 C 14,4 km/h (3 Bft)
10/04/2012 06:00 8,5 C 84 % 999,6 hPa 0,0 mm 6,5 km/h (2 Bft) S-SO 202 0 min 0 W/m 6,0 C 7,6 C 7,2 km/h (2 Bft)
10/04/2012 06:10 8,5 C 84 % 999,3 hPa 0,0 mm 8,6 km/h (2 Bft) SO 225 0 min 0 W/m 6,0 C 7,1 C 8,6 km/h (2 Bft)
10/04/2012 06:20 8,6 C 84 % 999,2 hPa 0,0 mm 6,8 km/h (2 Bft) SO 225 0 min 0 W/m 6,1 C 7,6 C 7,9 km/h (2 Bft)
10/04/2012 06:30 8,8 C 83 % 999,2 hPa 0,0 mm 7,2 km/h (2 Bft) S-SO 202 0 min 0 W/m 6,1 C 7,8 C 11,5 km/h (2 Bft)
10/04/2012 06:40 8,9 C 83 % 999,0 hPa 0,0 mm 8,6 km/h (2 Bft) S-SO 202 0 min 0 W/m 6,2 C 7,6 C 11,9 km/h (2 Bft)
10/04/2012 06:50 9,0 C 82 % 999,2 hPa 0,0 mm 10,8 km/h (2 Bft) SO 225 0 min 0 W/m 6,1 C 7,3 C 12,2 km/h (2 Bft)
10/04/2012 07:00 9,1 C 82 % 999,2 hPa 0,0 mm 10,4 km/h (2 Bft) SO 225 0 min 0 W/m 6,2 C 7,5 C 17,6 km/h (3 Bft)
10/04/2012 07:10 9,1 C 82 % 999,1 hPa 0,0 mm 7,6 km/h (2 Bft) S-SO 202 0 min 0 W/m 6,2 C 8,0 C 7,6 km/h (2 Bft)
10/04/2012 07:20 9,2 C 82 % 998,9 hPa 0,0 mm 6,1 km/h (2 Bft) SO 225 0 min 0 W/m 6,3 C 8,5 C 8,6 km/h (2 Bft)
10/04/2012 07:30 9,1 C 82 % 998,8 hPa 0,0 mm 7,9 km/h (2 Bft) SO 225 2 min 0 W/m 6,2 C 8,0 C 11,9 km/h (2 Bft)
10/04/2012 07:40 9,1 C 82 % 998,9 hPa 0,0 mm 9,4 km/h (2 Bft) S-SO 202 2 min 0 W/m 6,2 C 7,7 C 16,6 km/h (3 Bft)
10/04/2012 07:50 9,1 C 82 % 998,7 hPa 0,0 mm 9,0 km/h (2 Bft) S 180 2 min 0 W/m 6,2 C 7,7 C 9,7 km/h (2 Bft)
10/04/2012 08:00 9,1 C 82 % 998,7 hPa 0,0 mm 7,6 km/h (2 Bft) S 180 2 min 0 W/m 6,2 C 8,0 C 11,5 km/h (2 Bft)
10/04/2012 08:10 9,1 C 82 % 998,7 hPa 0,0 mm 9,0 km/h (2 Bft) S-SO 202 2 min 0 W/m 6,2 C 7,7 C 13,7 km/h (3 Bft)
10/04/2012 08:20 9,1 C 83 % 998,6 hPa 0,0 mm 8,6 km/h (2 Bft) S-SO 202 2 min 0 W/m 6,4 C 7,8 C 14,8 km/h (3 Bft)
10/04/2012 08:30 9,2 C 84 % 998,5 hPa 0,0 mm 8,6 km/h (2 Bft) S-SO 202 2 min 0 W/m 6,6 C 7,9 C 11,9 km/h (2 Bft)
10/04/2012 08:40 9,1 C 84 % 998,3 hPa 0,0 mm 2,9 km/h (1 Bft) SO 225 2 min 0 W/m 6,5 C 9,1 C 4,0 km/h (1 Bft)
10/04/2012 08:50 9,1 C 85 % 998,0 hPa 0,0 mm 7,9 km/h (2 Bft) SO 225 2 min 0 W/m 6,7 C 8,0 C 11,5 km/h (2 Bft)
10/04/2012 09:00 9,1 C 86 % 998,0 hPa 0,0 mm 5,4 km/h (2 Bft) S 180 2 min 0 W/m 6,9 C 8,6 C 9,4 km/h (2 Bft)
10/04/2012 09:10 9,1 C 86 % 998,0 hPa 0,0 mm 10,4 km/h (2 Bft) S 180 2 min 0 W/m 6,9 C 7,5 C 13,7 km/h (3 Bft)
10/04/2012 09:20 9,1 C 86 % 997,9 hPa 0,0 mm 6,8 km/h (2 Bft) S-SO 202 2 min 0 W/m 6,9 C 8,2 C 11,2 km/h (2 Bft)
10/04/2012 09:30 9,2 C 85 % 997,6 hPa 0,0 mm 7,6 km/h (2 Bft) S 180 2 min 0 W/m 6,8 C 8,2 C 7,6 km/h (2 Bft)
10/04/2012 09:40 9,4 C 85 % 997,9 hPa 0,0 mm 8,3 km/h (2 Bft) S 180 2 min 0 W/m 7,0 C 8,2 C 16,9 km/h (3 Bft)
10/04/2012 09:50 9,4 C 85 % 997,7 hPa 0,0 mm 9,7 km/h (2 Bft) S-SO 202 2 min 0 W/m 7,0 C 8,0 C 10,4 km/h (2 Bft)
10/04/2012 10:00 9,5 C 85 % 997,4 hPa 0,0 mm 3,2 km/h (1 Bft) S-SO 202 2 min 0 W/m 7,1 C 9,5 C 4,3 km/h (1 Bft)
10/04/2012 10:10 9,6 C 85 % 997,5 hPa 0,0 mm 4,0 km/h (1 Bft) SO 225 2 min 0 W/m 7,2 C 9,6 C 4,0 km/h (1 Bft)
10/04/2012 10:20 9,7 C 86 % 997,5 hPa 0,0 mm 5,0 km/h (1 Bft) S-SE 157 2 min 0 W/m 7,5 C 9,4 C 15,1 km/h (3 Bft)
10/04/2012 10:30 9,6 C 87 % 997,6 hPa 0,2 mm 3,6 km/h (1 Bft) O-SO 247 2 min 0 W/m 7,5 C 9,6 C 16,6 km/h (3 Bft)
10/04/2012 10:40 9,3 C 88 % 997,5 hPa 0,3 mm 10,8 km/h (2 Bft) S-SO 202 2 min 0 W/m 7,4 C 7,7 C 15,1 km/h (3 Bft)
10/04/2012 10:50 9,1 C 89 % 997,4 hPa 0,2 mm 5,8 km/h (2 Bft) S-SO 202 2 min 0 W/m 7,4 C 8,5 C 9,4 km/h (2 Bft)
10/04/2012 11:00 9,1 C 89 % 997,2 hPa 0,1 mm 9,7 km/h (2 Bft) SE 135 2 min 0 W/m 7,4 C 7,6 C 9,7 km/h (2 Bft)
10/04/2012 11:10 9,1 C 90 % 997,0 hPa 0,0 mm 10,1 km/h (2 Bft) S-SE 157 2 min 0 W/m 7,5 C 7,5 C 12,6 km/h (3 Bft)
10/04/2012 11:20 9,2 C 90 % 997,3 hPa 0,0 mm 12,6 km/h (3 Bft) S-SE 157 2 min 0 W/m 7,6 C 7,3 C 16,9 km/h (3 Bft)
10/04/2012 11:30 9,3 C 90 % 997,5 hPa 0,0 mm 7,6 km/h (2 Bft) O-SO 247 2 min 0 W/m 7,7 C 8,3 C 7,6 km/h (2 Bft)
10/04/2012 11:40 9,3 C 89 % 997,3 hPa 0,1 mm 8,6 km/h (2 Bft) S-SO 202 2 min 0 W/m 7,6 C 8,1 C 14,0 km/h (3 Bft)
10/04/2012 11:50 9,1 C 89 % 997,4 hPa 0,0 mm 9,7 km/h (2 Bft) S 180 2 min 0 W/m 7,4 C 7,6 C 12,6 km/h (3 Bft)
10/04/2012 12:00 8,9 C 89 % 997,5 hPa 0,1 mm 10,1 km/h (2 Bft) SO 225 2 min 0 W/m 7,2 C 7,3 C 15,5 km/h (3 Bft)
10/04/2012 12:10 8,9 C 89 % 997,2 hPa 0,1 mm 15,1 km/h (3 Bft) S 180 2 min 0 W/m 7,2 C 6,5 C 25,2 km/h (4 Bft)
10/04/2012 12:20 9,1 C 90 % 997,2 hPa 0,1 mm 15,1 km/h (3 Bft) SO 225 2 min 0 W/m 7,5 C 6,8 C 31,0 km/h (5 Bft)
10/04/2012 12:30 9,4 C 91 % 997,1 hPa 0,0 mm 15,8 km/h (3 Bft) S-SO 202 2 min 0 W/m 8,0 C 7,1 C 23,8 km/h (4 Bft)
10/04/2012 12:40 9,7 C 91 % 997,0 hPa 0,0 mm 10,4 km/h (2 Bft) SO 225 2 min 0 W/m 8,3 C 8,2 C 10,4 km/h (2 Bft)
10/04/2012 12:50 10,1 C 90 % 996,8 hPa 0,0 mm 10,1 km/h (2 Bft) SO 225 2 min 0 W/m 8,5 C 10,1 C 15,1 km/h (3 Bft)
10/04/2012 13:00 10,4 C 90 % 996,7 hPa 0,0 mm 7,6 km/h (2 Bft) SO 225 2 min 0 W/m 8,8 C 10,4 C 10,4 km/h (2 Bft)
10/04/2012 13:10 10,8 C 89 % 996,5 hPa 0,0 mm 9,0 km/h (2 Bft) SO 225 2 min 0 W/m 9,1 C 10,8 C 13,0 km/h (3 Bft)
10/04/2012 13:20 11,8 C 88 % 996,4 hPa 0,0 mm 10,1 km/h (2 Bft) SO 225 2 min 0 W/m 9,9 C 11,8 C 15,1 km/h (3 Bft)
10/04/2012 13:30 12,5 C 86 % 996,3 hPa 0,0 mm 21,6 km/h (4 Bft) SO 225 2 min 0 W/m 10,2 C 12,5 C 25,6 km/h (4 Bft)
10/04/2012 13:40 13,1 C 82 % 996,3 hPa 0,0 mm 14,0 km/h (3 Bft) S 180 2 min 0 W/m 10,1 C 13,1 C 23,8 km/h (4 Bft)
10/04/2012 13:50 13,2 C 79 % 996,5 hPa 0,0 mm 6,5 km/h (2 Bft) S-SO 202 2 min 0 W/m 9,6 C 13,2 C 7,9 km/h (2 Bft)
10/04/2012 14:00 13,0 C 78 % 996,3 hPa 0,0 mm 11,5 km/h (2 Bft) SO 225 2 min 0 W/m 9,3 C 13,0 C 17,6 km/h (3 Bft)
10/04/2012 14:10 12,4 C 79 % 996,6 hPa 0,0 mm 1,8 km/h (1 Bft) O-NO 292 2 min 0 W/m 8,9 C 12,4 C 4,3 km/h (1 Bft)
10/04/2012 14:20 10,9 C 80 % 997,0 hPa 0,6 mm 0,7 km/h (0 Bft) O-SO 247 2 min 0 W/m 7,6 C 10,9 C 3,6 km/h (1 Bft)
10/04/2012 14:30 9,6 C 84 % 997,1 hPa 0,3 mm 1,4 km/h (1 Bft) O-SO 247 2 min 0 W/m 7,0 C 9,6 C 5,4 km/h (2 Bft)
10/04/2012 14:40 9,1 C 86 % 997,2 hPa 0,3 mm 5,4 km/h (2 Bft) S-SO 202 2 min 0 W/m 6,9 C 8,6 C 7,6 km/h (2 Bft)
10/04/2012 14:50 8,8 C 87 % 997,3 hPa 0,1 mm 5,8 km/h (2 Bft) S-SO 202 2 min 0 W/m 6,8 C 8,1 C 14,8 km/h (3 Bft)
10/04/2012 15:00 8,8 C 89 % 997,2 hPa 0,1 mm 5,8 km/h (2 Bft) S-SO 202 2 min 0 W/m 7,1 C 8,1 C 10,1 km/h (2 Bft)
10/04/2012 15:10 8,8 C 89 % 997,2 hPa 0,1 mm 2,9 km/h (1 Bft) SO 225 2 min 0 W/m 7,1 C 8,8 C 6,5 km/h (2 Bft)
10/04/2012 15:20 8,7 C 90 % 997,3 hPa 0,1 mm 8,3 km/h (2 Bft) S 180 2 min 0 W/m 7,2 C 7,4 C 13,0 km/h (3 Bft)
10/04/2012 15:30 8,8 C 91 % 997,3 hPa 0,0 mm 5,0 km/h (1 Bft) SO 225 2 min 0 W/m 7,4 C 8,4 C 5,0 km/h (1 Bft)
10/04/2012 15:40 9,0 C 91 % 997,3 hPa 0,0 mm 9,4 km/h (2 Bft) S-SO 202 2 min 0 W/m 7,6 C 7,5 C 10,4 km/h (2 Bft)
10/04/2012 15:50 9,3 C 91 % 997,3 hPa 0,0 mm 6,5 km/h (2 Bft) SO 225 2 min 0 W/m 7,9 C 8,5 C 6,5 km/h (2 Bft)
10/04/2012 16:00 9,3 C 90 % 997,3 hPa 0,0 mm 7,2 km/h (2 Bft) SO 225 2 min 0 W/m 7,7 C 8,4 C 7,2 km/h (2 Bft)
10/04/2012 16:10 9,4 C 90 % 997,3 hPa 0,0 mm 4,7 km/h (1 Bft) SO 225 2 min 0 W/m 7,8 C 9,2 C 6,5 km/h (2 Bft)
10/04/2012 16:20 9,4 C 90 % 997,3 hPa 0,0 mm 8,3 km/h (2 Bft) S-SO 202 2 min 0 W/m 7,8 C 8,2 C 13,7 km/h (3 Bft)
10/04/2012 16:30 9,4 C 89 % 997,4 hPa 0,0 mm 5,0 km/h (1 Bft) S-SO 202 2 min 0 W/m 7,7 C 9,1 C 7,6 km/h (2 Bft)
10/04/2012 16:40 9,4 C 89 % 997,4 hPa 0,0 mm 11,9 km/h (2 Bft) SO 225 2 min 0 W/m 7,7 C 7,6 C 15,1 km/h (3 Bft)
10/04/2012 16:50 9,5 C 89 % 997,3 hPa 0,0 mm 10,1 km/h (2 Bft) O-SO 247 2 min 0 W/m 7,8 C 8,0 C 12,6 km/h (3 Bft)
10/04/2012 17:00 9,4 C 88 % 997,3 hPa 0,0 mm 2,9 km/h (1 Bft) O-SO 247 2 min 0 W/m 7,5 C 9,4 C 7,2 km/h (2 Bft)
10/04/2012 17:10 8,9 C 86 % 997,8 hPa 0,1 mm 4,3 km/h (1 Bft) O-SO 247 2 min 0 W/m 6,7 C 8,9 C 15,1 km/h (3 Bft)
10/04/2012 17:20 8,4 C 85 % 998,0 hPa 0,0 mm 3,2 km/h (1 Bft) O 270 2 min 0 W/m 6,0 C 8,4 C 7,2 km/h (2 Bft)
10/04/2012 17:30 7,9 C 85 % 998,4 hPa 0,0 mm 3,6 km/h (1 Bft) SO 225 2 min 0 W/m 5,5 C 7,9 C 3,6 km/h (1 Bft)
10/04/2012 17:40 7,8 C 87 % 998,1 hPa 0,0 mm 3,6 km/h (1 Bft) O-SO 247 2 min 0 W/m 5,8 C 7,8 C 6,1 km/h (2 Bft)
10/04/2012 17:50 7,8 C 87 % 998,2 hPa 0,0 mm 1,1 km/h (1 Bft) SO 225 2 min 0 W/m 5,8 C 7,8 C 4,3 km/h (1 Bft)
10/04/2012 18:00 8,1 C 87 % 998,1 hPa 0,0 mm 6,8 km/h (2 Bft) O 270 2 min 0 W/m 6,1 C 7,1 C 15,5 km/h (3 Bft)
10/04/2012 18:10 8,4 C 87 % 998,2 hPa 0,0 mm 1,4 km/h (1 Bft) O 270 2 min 0 W/m 6,4 C 8,4 C 6,5 km/h (2 Bft)
10/04/2012 18:20 8,5 C 86 % 998,4 hPa 0,0 mm 2,2 km/h (1 Bft) S-SO 202 2 min 0 W/m 6,3 C 8,5 C 6,8 km/h (2 Bft)
10/04/2012 18:30 8,4 C 84 % 998,7 hPa 0,0 mm 1,4 km/h (1 Bft) O-SO 247 2 min 0 W/m 5,9 C 8,4 C 6,8 km/h (2 Bft)
10/04/2012 18:40 8,4 C 84 % 998,8 hPa 0,0 mm 6,5 km/h (2 Bft) SO 225 2 min 0 W/m 5,9 C 7,5 C 10,8 km/h (2 Bft)
10/04/2012 18:50 8,4 C 84 % 999,0 hPa 0,0 mm 4,7 km/h (1 Bft) SO 225 2 min 0 W/m 5,9 C 8,0 C 7,9 km/h (2 Bft)
10/04/2012 19:00 8,3 C 84 % 999,0 hPa 0,0 mm 4,3 km/h (1 Bft) SO 225 2 min 0 W/m 5,8 C 8,3 C 4,3 km/h (1 Bft)
10/04/2012 19:10 8,3 C 85 % 999,2 hPa 0,0 mm 5,8 km/h (2 Bft) S-SO 202 2 min 0 W/m 5,9 C 7,6 C 10,1 km/h (2 Bft)
10/04/2012 19:20 8,3 C 85 % 999,2 hPa 0,0 mm 6,1 km/h (2 Bft) S-SO 202 2 min 0 W/m 5,9 C 7,5 C 7,2 km/h (2 Bft)
10/04/2012 19:30 8,3 C 85 % 999,1 hPa 0,0 mm 5,0 km/h (1 Bft) SO 225 2 min 0 W/m 5,9 C 7,8 C 6,1 km/h (2 Bft)
10/04/2012 19:40 8,3 C 85 % 999,2 hPa 0,0 mm 4,7 km/h (1 Bft) SO 225 2 min 0 W/m 5,9 C 7,9 C 7,6 km/h (2 Bft)
10/04/2012 19:50 8,3 C 85 % 999,3 hPa 0,0 mm 6,5 km/h (2 Bft) SO 225 2 min 0 W/m 5,9 C 7,4 C 10,8 km/h (2 Bft)
10/04/2012 20:00 8,2 C 85 % 999,6 hPa 0,0 mm 6,1 km/h (2 Bft) SO 225 2 min 0 W/m 5,8 C 7,4 C 11,2 km/h (2 Bft)
10/04/2012 20:10 8,2 C 85 % 999,7 hPa 0,0 mm 7,9 km/h (2 Bft) S-SO 202 2 min 0 W/m 5,8 C 6,9 C 8,3 km/h (2 Bft)
10/04/2012 20:20 8,2 C 85 % 999,8 hPa 0,0 mm 5,8 km/h (2 Bft) SO 225 2 min 0 W/m 5,8 C 7,5 C 11,2 km/h (2 Bft)
10/04/2012 20:30 8,1 C 85 % 999,9 hPa 0,0 mm 8,3 km/h (2 Bft) S-SO 202 0 min 0 W/m 5,7 C 6,7 C 12,6 km/h (3 Bft)
10/04/2012 20:40 7,9 C 85 % 999,9 hPa 0,0 mm 6,8 km/h (2 Bft) S-SO 202 0 min 0 W/m 5,5 C 6,8 C 9,7 km/h (2 Bft)
10/04/2012 20:50 7,8 C 85 % 1000,0 hPa 0,0 mm 6,8 km/h (2 Bft) O-SO 247 0 min 0 W/m 5,4 C 6,7 C 10,8 km/h (2 Bft)
10/04/2012 21:00 7,8 C 85 % 1000,2 hPa 0,0 mm 5,4 km/h (2 Bft) SO 225 0 min 0 W/m 5,4 C 7,1 C 11,2 km/h (2 Bft)
10/04/2012 21:10 7,6 C 85 % 1000,4 hPa 0,0 mm 4,0 km/h (1 Bft) S-SO 202 0 min 0 W/m 5,2 C 7,6 C 7,6 km/h (2 Bft)
10/04/2012 21:20 7,5 C 85 % 1000,7 hPa 0,0 mm 5,8 km/h (2 Bft) O-SO 247 0 min 0 W/m 5,1 C 6,7 C 8,3 km/h (2 Bft)
10/04/2012 21:30 7,4 C 86 % 1000,9 hPa 0,0 mm 4,7 km/h (1 Bft) SO 225 0 min 0 W/m 5,2 C 6,9 C 4,7 km/h (1 Bft)
10/04/2012 21:40 7,2 C 86 % 1001,0 hPa 0,0 mm 3,6 km/h (1 Bft) SO 225 0 min 0 W/m 5,0 C 7,2 C 6,5 km/h (2 Bft)
10/04/2012 21:50 6,9 C 87 % 1001,0 hPa 0,0 mm 4,0 km/h (1 Bft) SO 225 0 min 0 W/m 4,9 C 6,9 C 4,0 km/h (1 Bft)
10/04/2012 22:00 6,9 C 87 % 1001,1 hPa 0,0 mm 6,8 km/h (2 Bft) SO 225 0 min 0 W/m 4,9 C 5,7 C 12,6 km/h (3 Bft)
10/04/2012 22:10 6,8 C 87 % 1001,3 hPa 0,0 mm 7,6 km/h (2 Bft) S-SE 157 0 min 0 W/m 4,8 C 5,3 C 9,7 km/h (2 Bft)
10/04/2012 22:20 6,6 C 86 % 1001,3 hPa 0,0 mm 5,4 km/h (2 Bft) SO 225 0 min 0 W/m 4,4 C 5,8 C 9,0 km/h (2 Bft)
10/04/2012 22:30 6,6 C 86 % 1001,2 hPa 0,0 mm 5,0 km/h (1 Bft) S-SO 202 0 min 0 W/m 4,4 C 5,9 C 8,3 km/h (2 Bft)
10/04/2012 22:40 6,5 C 87 % 1001,3 hPa 0,0 mm 7,6 km/h (2 Bft) SO 225 0 min 0 W/m 4,5 C 5,0 C 12,6 km/h (3 Bft)
10/04/2012 22:50 6,4 C 88 % 1001,4 hPa 0,0 mm 6,5 km/h (2 Bft) SO 225 0 min 0 W/m 4,6 C 5,2 C 10,1 km/h (2 Bft)
10/04/2012 23:00 6,3 C 89 % 1001,4 hPa 0,0 mm 3,6 km/h (1 Bft) SO 225 0 min 0 W/m 4,6 C 6,3 C 7,2 km/h (2 Bft)
10/04/2012 23:10 6,3 C 89 % 1001,4 hPa 0,0 mm 9,4 km/h (2 Bft) SO 225 0 min 0 W/m 4,6 C 4,3 C 14,8 km/h (3 Bft)
10/04/2012 23:20 6,1 C 89 % 1001,4 hPa 0,0 mm 6,1 km/h (2 Bft) SO 225 0 min 0 W/m 4,4 C 5,0 C 10,4 km/h (2 Bft)
10/04/2012 23:30 6,0 C 89 % 1001,5 hPa 0,0 mm 7,6 km/h (2 Bft) S-SO 202 0 min 0 W/m 4,3 C 4,4 C 8,6 km/h (2 Bft)
10/04/2012 23:40 5,8 C 89 % 1001,5 hPa 0,0 mm 6,1 km/h (2 Bft) S-SO 202 0 min 0 W/m 4,1 C 4,6 C 9,0 km/h (2 Bft)
10/04/2012 23:50 5,8 C 90 % 1001,5 hPa 0,0 mm 5,8 km/h (2 Bft) S-SO 202 0 min 0 W/m 4,3 C 4,7 C 6,5 km/h (2 Bft)
_ Min-Heure 23:50 00:50 14:00 - 14:20 - - - - 23:40 23:10 17:30
Minimum _ 5,8 C 75 % 996,3 hPa - 0,7 km/h (0 Bft) - - - - 4,1 C 4,3 C 3,6 km/h (1 Bft)
_ Max-Heure 13:50 15:50 01:00 14:20 13:30 - - 20:20 23:50 13:30 13:50 12:20
Maximum _ 13,2 C 91 % 1002,5 hPa 0,6 mm 21,6 km/h
SO (4 Bft)
- - 2 min 0 W/m 10,2 C 13,2 C 31,0 km/h
SO (5 Bft)
Moyenne _ 8,9 C 85 % 999,2 hPa #3,0 mm 7,3 km/h (2 Bft) SO - #2:36 h 0 W/m 6,4 C 8,0 C 10,9 km/h (2 Bft)
Saint Bonnet de Bellac- Haute Vienne - France